SCP
0 0 0 0 0 0 0 0 0 0 0 0 0 0 0 0 0 0 0 0 1 1 2 2 3 4 4 4 3 3 2 2 2 2 1 1 1 1 1 1 1 1 0 0 0 0 0 0 0
0 0 0 0 0 0 0 0 0 0 0 0 0 0 0 0 0 0 0 1 1 1 2 2 3 4 4 4 3 3 2 2 2 2 1 1 1 1 1 1 1 1 1 0 0 0 0 0 0
0 0 0 0 0 0 0 0 0 0 0 0 0 0 0 0 0 0 0 1 1 2 2 3 4 4 4 4 3 3 2 2 2 2 1 1 1 1 1 1 1 1 1 0 0 0 0 0 0
0 1 0 0 0 0 0 0 0 0 0 0 0 0 0 0 0 0 1 1 1 2 2 3 4 5 5 4 3 3 2 2 2 2 1 1 1 1 1 1 1 1 0 0 0 0 0 0 0
1 1 1 0 0 0 0 0 0 0 0 0 0 0 0 0 0 1 1 1 1 2 2 3 4 5 5 4 3 3 2 2 2 2 1 1 1 1 1 1 1 1 0 0 0 0 0 0 0
1 1 0 0 0 0 0 0 0 0 0 0 0 0 0 0 1 1 2 2 2 2 2 3 4 4 5 4 3 3 2 2 2 2 1 1 1 1 1 1 1 0 0 0 0 0 0 0 0
1 1 0 0 0 0 0 0 0 0 0 0 0 0 0 0 1 2 2 2 2 2 2 3 3 4 4 4 3 3 2 2 2 1 1 1 1 1 1 1 0 0 0 0 0 0 0 0 0
1 1 0 0 0 0 0 0 0 0 0 0 0 0 0 0 1 2 3 3 3 2 3 3 3 3 4 3 2 2 2 2 2 1 1 1 1 1 0 0 0 0 0 0 0 0 0 0 0
1 1 0 0 0 0 0 0 0 0 0 0 0 0 0 0 1 2 4 4 4 3 3 3 3 4 3 3 2 2 2 2 1 1 1 1 0 0 0 0 0 0 0 0 0 0 0 0 0
1 1 0 0 0 0 0 0 0 0 0 0 0 0 0 1 1 3 4 5 4 3 3 3 3 4 4 3 2 1 1 1 1 1 0 0 0 0 0 0 0 0 0 0 0 0 0 0 0
1 0 0 0 0 0 0 0 0 0 0 0 0 0 1 1 2 3 5 6 5 4 3 2 3 4 4 3 2 1 1 1 0 0 0 0 0 0 0 0 0 0 0 0 0 0 0 0 0
0 0 0 0 0 0 0 0 0 0 0 0 0 0 1 2 2 3 4 6 6 5 4 3 3 4 4 3 2 1 1 1 0 0 0 0 0 0 0 0 0 0 0 0 0 0 0 0 0
0 0 0 0 0 0 0 0 0 0 0 0 0 0 1 1 2 2 3 5 7 7 5 4 4 4 4 3 2 1 1 0 0 0 0 0 0 0 0 0 0 0 0 0 0 0 0 0 0
0 0 0 0 0 0 0 0 0 0 0 0 0 0 0 1 1 1 2 4 7 8 7 6 5 5 4 3 2 1 1 0 0 0 0 0 0 0 0 0 0 0 0 0 0 0 0 0 0
0 0 0 0 0 0 0 0 0 0 0 0 0 0 0 0 1 1 2 3 6 7 7 7 6 5 4 3 2 1 1 0 0 0 0 0 0 0 0 0 0 0 0 0 0 0 0 0 0
0 0 0 0 0 0 0 0 0 0 0 0 0 0 0 0 0 1 1 3 5 7 7 7 6 5 4 3 2 1 1 0 0 0 0 0 0 0 0 0 0 0 0 0 0 0 0 0 0
0 0 0 0 0 0 0 0 0 0 0 0 0 0 0 0 0 0 1 2 3 5 7 7 6 5 4 3 2 1 1 0 0 0 0 0 0 0 0 0 0 0 0 0 0 0 0 0 0
0 0 0 0 0 0 0 0 0 0 0 0 0 0 0 0 0 0 1 1 2 4 5 7 6 5 4 3 2 1 1 0 0 0 0 0 0 0 0 0 0 0 0 0 0 0 0 0 0
0 0 0 0 0 0 0 0 0 0 0 0 0 0 0 0 0 0 1 1 1 2 4 4 5 5 4 4 3 1 1 1 0 0 0 0 0 0 0 0 0 0 0 0 0 0 0 0 0
0 0 0 0 0 0 0 0 0 0 0 0 0 0 0 0 0 0 0 1 1 2 2 3 3 4 4 3 3 2 1 1 0 0 0 0 0 0 0 0 0 0 0 0 0 0 0 0 0
0 0 0 0 0 0 0 0 0 0 0 0 0 0 0 0 0 0 0 1 1 1 2 2 3 3 3 3 2 2 1 1 1 0 0 0 0 0 0 0 0 0 0 0 0 0 0 0 0
0 0 0 0 0 0 0 0 0 0 0 0 0 0 0 0 0 0 0 0 1 1 2 2 3 3 3 2 2 2 1 1 0 0 0 0 0 0 0 0 0 0 0 0 0 0 0 0 0
0 0 0 0 0 0 0 0 0 0 0 0 0 0 0 0 0 0 0 0 1 1 2 3 3 3 3 3 2 2 1 1 1 0 0 0 0 0 0 0 0 0 0 0 0 0 0 0 0
0 0 0 0 0 0 0 0 0 0 0 0 0 0 0 0 0 0 0 0 1 1 2 3 3 3 3 3 3 2 2 1 1 0 0 0 0 0 0 0 0 0 0 0 0 0 0 0 0
0 0 0 0 0 0 0 0 0 0 0 0 0 0 0 0 0 0 0 0 0 1 2 3 3 3 3 3 3 2 2 2 1 1 0 0 0 0 0 0 0 0 0 0 0 0 0 0 0
0 0 0 0 0 0 0 0 0 0 0 0 0 0 0 0 0 0 0 0 0 1 2 3 3 3 3 3 3 2 2 2 1 1 1 0 0 0 0 0 0 0 0 0 0 0 0 0 0
0 0 0 0 0 0 0 0 0 0 0 0 0 0 0 0 0 0 0 0 0 1 2 3 3 4 4 4 3 2 2 2 2 1 1 1 0 0 0 0 0 0 0 0 0 0 0 0 0
0 0 0 0 0 0 0 0 0 0 0 0 0 0 0 0 0 0 0 0 0 1 2 3 3 4 4 4 4 3 2 2 2 1 1 1 0 0 0 0 0 0 0 0 0 0 0 0 0
0 0 0 0 0 0 0 0 0 0 0 0 0 0 0 0 0 0 0 0 0 0 2 3 4 4 4 5 4 3 2 2 2 1 1 1 1 0 0 0 0 0 0 0 0 0 0 0 0
0 0 0 0 0 0 0 0 0 0 0 0 0 0 0 0 0 0 0 0 0 0 1 3 3 4 4 5 5 4 3 2 2 1 1 1 1 0 0 0 0 0 0 0 0 0 0 0 0
Wind_Speed
5 1 3 3 3 1 7 8 6 5 5 7 7 5 6 7 6 5 3 12 15 19 18 22 24 24 24 24 23 22 21 21 20 20 19 19 18 18 17 17 17 17 17 18 18 17 17 17 16
1 2 3 3 4 6 9 8 11 15 9 3 3 3 3 4 2 6 8 11 18 19 17 19 24 24 24 24 24 23 22 21 20 20 19 19 18 18 18 17 17 17 17 17 17 17 16 16 15
1 3 3 4 7 11 9 7 14 15 11 6 4 3 5 6 5 8 9 17 19 18 16 19 24 24 24 25 24 23 22 21 21 20 19 19 18 18 18 18 17 17 17 17 17 16 15 15 14
1 2 2 6 15 13 9 7 5 6 6 6 6 3 2 3 7 8 16 19 19 16 15 18 24 24 24 24 24 23 22 22 21 20 19 19 18 18 18 18 18 17 17 17 16 16 15 14 14
1 3 6 11 18 9 9 11 7 7 5 5 3 4 2 3 5 14 20 20 20 17 14 18 23 24 24 24 24 23 22 22 21 20 20 19 19 18 18 18 17 17 17 16 16 15 14 13 13
3 4 9 17 18 11 10 10 7 10 9 8 3 4 2 1 11 17 19 18 18 17 15 17 22 23 23 24 23 23 22 22 21 21 20 20 19 19 19 18 17 17 16 16 15 14 14 13 13
5 6 13 13 13 14 13 9 10 11 12 11 5 5 2 3 8 14 15 15 15 15 14 13 15 18 21 22 22 22 21 21 21 21 20 20 19 19 19 18 17 16 16 15 15 14 13 12 12
5 5 11 13 15 15 8 8 10 13 13 8 6 9 8 8 9 12 13 13 14 13 12 12 12 13 14 15 19 20 19 20 20 19 18 17 18 18 18 16 17 16 15 15 14 13 13 12 11
4 10 18 18 14 8 6 8 9 7 8 7 5 8 8 14 15 16 14 13 14 14 12 11 12 12 12 12 16 16 17 18 17 15 17 14 8 9 10 12 15 16 15 14 13 13 12 10 9
8 17 26 12 7 5 7 9 8 4 6 5 2 0 8 17 20 21 21 20 20 19 16 13 13 13 12 11 11 9 9 11 10 9 10 7 6 6 8 12 14 15 14 14 13 12 10 6 3
9 17 15 12 9 7 8 9 7 6 9 7 6 7 13 17 19 21 21 21 21 20 18 15 14 13 12 9 8 6 6 7 8 10 9 7 6 5 5 4 7 7 8 5 7 6 3 3 2
12 15 12 11 9 10 12 9 9 10 12 6 7 12 17 19 20 20 20 19 18 19 18 16 15 14 12 10 8 8 7 7 7 9 10 8 5 5 5 3 4 4 3 4 3 2 2 2 3
17 18 16 13 13 14 14 15 13 15 12 6 5 10 17 19 18 17 17 17 17 19 19 18 16 15 13 11 9 9 8 8 8 8 9 9 7 7 6 4 4 4 4 4 3 3 3 3 3
11 12 15 14 14 13 16 17 13 16 8 6 8 11 14 17 17 12 13 16 18 19 19 18 18 16 14 12 10 9 9 9 9 8 9 10 8 8 7 6 5 4 4 4 4 4 4 3 3
9 12 14 15 15 11 10 18 21 18 8 8 10 11 13 13 13 15 19 19 20 20 19 19 18 17 16 14 12 10 9 9 9 8 10 10 9 9 8 7 5 5 5 5 4 4 3 3 3
7 10 13 12 13 12 12 21 17 11 11 12 10 10 11 12 13 14 17 17 17 18 19 19 17 18 17 15 13 10 10 10 9 8 9 11 11 11 8 7 6 6 5 4 4 4 3 3 3
7 11 14 12 11 11 14 16 9 9 12 14 12 11 12 12 12 13 14 16 17 19 20 20 18 19 18 16 12 10 10 10 9 9 9 10 12 12 9 7 6 7 5 4 5 3 3 3 3
8 9 11 12 7 12 16 17 11 9 12 13 12 11 12 13 16 15 15 16 17 18 19 20 18 19 16 13 10 9 9 9 9 9 10 11 11 12 10 7 8 7 6 5 4 4 3 3 4
11 12 13 12 7 10 16 18 15 12 11 12 12 12 12 14 14 14 16 16 17 17 19 20 19 19 16 13 13 13 12 11 9 9 11 12 12 12 11 8 8 8 7 7 6 4 4 3 3
14 15 15 12 10 10 13 18 14 14 15 12 12 13 13 12 11 13 15 16 18 20 21 22 21 21 20 15 13 10 9 7 7 7 10 12 13 13 11 10 9 8 7 7 7 5 4 3 4
14 13 12 11 9 9 9 13 15 13 14 14 13 12 12 15 15 14 15 17 18 20 22 21 23 21 21 16 10 8 6 5 6 9 10 11 13 13 11 12 10 9 9 8 8 7 7 5 3
12 9 11 12 9 6 7 8 9 11 13 16 16 14 13 14 15 14 15 16 19 20 21 22 23 22 21 18 16 18 14 13 12 11 10 10 12 13 12 12 11 11 9 8 9 8 6 7 5
9 7 9 10 8 8 7 8 7 7 13 16 16 16 14 13 13 14 14 16 17 19 19 20 22 22 21 20 20 19 14 11 7 7 10 10 10 12 13 13 12 11 9 10 10 8 7 6 6
7 5 7 7 5 10 11 10 7 7 14 14 15 15 14 12 12 12 12 13 15 16 17 19 21 22 21 22 21 21 19 14 12 12 13 11 9 10 13 13 13 12 10 10 10 10 10 8 7
5 3 3 4 6 8 8 10 10 9 9 11 13 13 12 11 10 9 11 12 14 16 17 18 21 21 21 22 21 22 21 18 18 16 15 13 10 11 15 14 13 11 10 10 10 10 9 9 9
5 7 6 4 5 3 7 10 8 8 8 7 8 8 9 10 10 10 10 12 14 16 18 19 21 20 21 22 21 20 19 15 13 14 13 14 12 12 11 13 12 11 11 11 10 9 9 9 9
4 6 5 3 3 3 5 5 5 3 4 5 6 5 7 9 10 10 9 11 13 15 17 19 20 20 21 21 20 19 19 17 15 15 13 11 10 8 10 12 11 11 11 12 11 9 10 9 10
4 3 3 5 4 4 5 4 2 3 4 5 5 6 7 6 6 7 7 9 11 13 14 16 18 20 19 21 19 16 18 18 15 13 15 14 12 10 11 12 12 12 11 12 11 8 8 10 9
2 2 3 3 3 3 3 3 1 2 2 4 6 6 5 5 5 5 5 6 7 9 12 13 15 16 18 19 18 17 17 17 15 14 16 15 12 13 13 13 13 13 13 12 12 11 11 12 10
2 2 2 2 4 4 2 4 2 3 5 5 6 7 6 4 3 2 1 1 4 6 8 11 12 13 15 17 17 17 16 15 16 16 15 14 14 14 14 13 13 13 13 13 14 13 12 12 12
Wind_Direction
251 104 90 74 77 185 231 231 228 242 232 219 216 197 193 195 183 198 136 141 141 156 163 161 159 156 153 149 145 142 139 137 134 133 131 129 127 127 126 124 120 117 113 111 109 107 106 106 105
141 133 88 91 160 215 239 223 226 236 231 270 264 213 184 212 208 132 137 153 149 157 162 160 159 156 152 149 146 144 142 140 138 136 135 133 131 130 128 125 121 118 114 111 110 109 109 109 108
173 166 143 158 200 210 224 216 223 241 250 251 257 239 187 187 170 166 160 151 149 158 161 160 158 156 153 150 148 146 145 143 141 140 139 137 135 133 130 126 122 119 117 115 114 114 114 112 108
143 141 174 209 227 220 213 221 217 265 275 239 212 216 207 194 177 169 145 148 150 157 159 161 159 157 154 152 150 148 147 146 145 144 142 139 137 135 131 128 125 122 122 120 118 118 116 113 107
115 159 212 232 236 232 228 242 259 273 271 267 207 190 201 313 147 140 145 150 153 155 158 161 160 158 156 154 152 151 150 149 147 146 144 141 139 136 132 130 129 127 126 126 123 122 119 115 110
196 188 213 230 235 234 237 240 253 258 262 269 230 184 211 126 137 146 149 152 153 155 157 161 161 159 157 155 154 153 152 151 150 149 146 142 140 138 136 135 134 132 131 130 127 125 123 118 112
199 210 227 232 238 236 232 230 235 246 254 248 198 166 204 168 154 146 146 146 149 154 157 160 161 158 157 156 155 154 154 153 152 151 147 144 143 143 141 140 139 137 136 134 132 129 127 122 113
198 221 235 230 232 238 224 226 230 232 246 245 177 170 195 192 153 136 137 142 149 155 158 158 158 157 156 155 154 154 153 153 152 149 146 145 146 146 144 143 142 141 139 137 135 134 130 123 114
198 228 232 225 223 232 212 234 246 236 235 249 211 192 194 150 141 136 140 147 156 161 163 159 158 156 153 153 155 153 152 151 148 145 145 141 137 137 139 142 145 145 143 141 139 137 132 122 113
208 230 233 229 220 220 226 239 254 272 255 249 270 298 136 145 150 153 159 164 167 169 169 165 161 157 155 156 153 152 151 148 144 144 141 133 130 133 137 146 148 148 147 146 145 142 132 112 89
222 236 244 243 243 248 250 254 256 250 254 232 210 178 155 159 161 165 169 172 173 170 169 168 164 160 159 155 153 152 148 146 143 145 141 137 131 133 132 137 146 142 138 133 138 127 113 112 111
246 250 248 251 251 251 253 256 259 244 245 245 212 176 165 169 171 174 173 173 171 171 173 169 166 163 162 156 156 154 153 152 153 153 149 145 141 139 142 137 137 134 131 133 126 129 138 134 132
245 253 254 255 253 255 260 253 253 256 256 257 209 181 177 179 181 181 176 170 170 174 174 172 169 167 164 159 161 161 160 159 158 158 157 153 151 153 149 150 150 148 146 150 150 153 157 153 149
253 259 259 257 255 252 252 258 251 252 246 231 200 198 194 188 183 173 170 171 174 177 176 174 173 170 166 166 167 165 165 162 163 165 164 160 158 159 158 158 160 162 163 163 162 166 163 161 149
270 268 264 252 249 246 252 254 243 244 237 230 212 205 204 202 189 183 181 179 179 178 176 176 175 172 170 169 170 168 169 167 169 170 168 166 163 164 163 164 169 174 170 163 155 155 149 145 140
256 253 250 241 232 234 229 247 243 233 226 232 222 211 210 208 201 196 188 183 180 177 177 178 177 176 174 173 172 170 172 171 173 172 172 171 168 167 166 168 176 175 167 161 156 153 145 144 141
230 236 243 250 225 222 225 249 248 225 223 231 227 212 212 212 210 204 195 187 182 180 178 179 179 177 177 174 172 170 172 174 175 174 175 175 173 171 170 172 174 170 166 166 165 153 148 148 148
228 236 243 241 232 226 235 247 255 242 227 230 229 218 214 213 212 204 198 192 186 183 181 180 178 177 175 171 169 169 174 177 177 179 179 176 176 174 171 172 173 169 166 168 163 153 148 148 150
256 264 262 260 260 246 245 249 248 248 247 236 230 225 220 220 215 205 199 193 187 184 183 182 180 177 174 177 178 179 183 181 180 181 178 179 178 176 174 173 174 174 176 174 163 149 152 147 134
254 257 264 271 257 250 254 256 252 239 237 236 232 228 223 226 221 208 201 194 189 187 186 185 183 180 181 183 183 182 174 173 175 176 179 181 180 179 180 175 178 177 172 171 170 154 151 158 156
251 248 249 258 276 264 261 259 246 239 234 234 235 231 223 221 220 213 203 197 192 190 188 187 186 184 184 179 169 156 147 148 172 186 188 186 183 182 182 180 178 179 179 183 181 172 163 168 186
256 245 254 255 258 249 220 258 246 229 232 231 231 230 227 223 219 213 204 199 195 193 190 189 187 186 184 178 176 175 180 186 191 188 186 183 184 184 183 181 181 183 185 184 185 182 171 162 177
252 260 255 251 249 264 232 247 263 224 227 227 226 227 227 226 220 214 206 200 197 193 189 190 188 188 184 182 182 183 189 191 173 170 176 183 187 188 187 185 186 188 190 189 187 183 183 177 174
253 262 263 250 234 247 225 226 257 218 219 221 223 224 224 222 220 217 210 201 197 192 190 188 187 188 185 185 185 188 189 181 172 178 185 188 189 191 193 191 191 192 192 191 191 189 189 191 183
222 196 229 214 210 235 199 210 243 238 230 224 224 224 220 219 217 213 207 199 195 191 190 188 187 188 186 188 190 193 192 186 186 187 189 189 190 197 199 195 195 194 192 190 188 192 194 193 192
228 198 207 214 211 239 193 215 240 242 246 245 236 229 223 221 219 214 207 201 196 191 190 189 188 189 188 190 194 196 193 191 193 190 191 195 200 201 193 195 197 194 190 191 191 196 197 197 201
226 219 224 265 286 252 229 242 286 298 289 268 255 243 237 227 222 219 210 203 196 192 190 190 190 189 190 191 194 195 194 194 194 191 192 196 198 191 187 193 195 194 192 193 191 201 202 200 204
235 226 193 204 218 238 245 232 252 290 280 289 281 259 252 250 237 227 213 206 199 193 191 190 191 191 190 192 194 195 196 198 195 189 194 197 195 187 186 193 196 195 195 194 194 198 198 202 206
285 238 235 216 224 214 238 250 257 259 320 322 309 300 276 263 249 239 222 205 199 191 188 188 191 191 191 192 194 195 196 197 193 194 197 198 193 190 192 194 196 197 198 197 199 203 198 204 206
238 239 228 227 250 239 243 262 352 6 12 6 351 346 332 318 295 276 253 188 187 189 188 188 190 190 192 192 192 195 195 193 194 197 197 194 193 194 195 193 196 199 200 200 203 205 202 204 207